Weather History for Westerland, Germany

Change the Weather History Date:

Tuesday, October 30, 2012

  Actual Average Record
Temperature  
Mean Temperature 42 °F -  
Max Temperature 46 °F 51 °F 62 °F (2005)
Min Temperature 39 °F 46 °F 35 °F (2008)
Degree Days  
Heating Degree Days 22    
Moisture  
Dew Point 38 °F    
Average Humidity 82    
Maximum Humidity 93    
Minimum Humidity 71    
Precipitation  
Precipitation 0.00 in - - ()
Sea Level Pressure  
Sea Level Pressure 29.52 in    
Wind  
Wind Speed 8 mph ()    
Max Wind Speed 17 mph    
Max Gust Speed 24 mph    
Visibility 6.0 miles    
Events Rain    
Averages and records for this station are not official NWS values.
T = Trace of Precipitation, MM = Missing Value Source: Averaged Metar Reports

Daily Weather History Graph

Daily Weather History Graph

Search for Another Location

Airport:

Trip Planner

Search our weather history database for the weather conditions in past years. The results will help you decide how hot, cold, wet, or windy it might be!

Date:

Astronomy

Oct. 30, 2012 Rise Set
Actual Time 7:26 AM CET 4:53 PM CET
Civil Twilight 6:48 AM CET 5:31 PM CET
Nautical Twilight 6:05 AM CET 6:13 PM CET
Astronomical Twilight 5:23 AM CET 6:55 PM CET
Moon 4:58 PM CET 8:09 AM CET
Length of Visible Light 10h 42m
Length of Day
9h 26m
Full, 100% of the Moon is Illuminated
Oct 30
Full
Nov 7
Last Quarter
Nov 13
New
Nov 20
First Quarter
Nov 28
Full

Hourly Weather History & Observations

Time (CET) Temp. Windchill Dew Point Humidity Pressure Visibility Wind Dir Wind Speed Gust Speed Precip Events Conditions
12:20 AM 44.6 °F 39.7 °F 37.4 °F 76% 29.53 in 6.2 mi NW 9.2 mph - N/A   Partly Cloudy
12:50 AM 44.6 °F 38.8 °F 35.6 °F 71% 29.53 in 6.2 mi NW 11.5 mph - N/A   Partly Cloudy
1:20 AM 44.6 °F 39.2 °F 37.4 °F 76% 29.53 in 6.2 mi NW 10.4 mph - N/A   Partly Cloudy
1:50 AM 44.6 °F 38.8 °F 37.4 °F 76% 29.53 in 6.2 mi NNW 11.5 mph - N/A   Mostly Cloudy
2:20 AM 42.8 °F 37.0 °F 35.6 °F 76% 29.53 in 6.2 mi NW 10.4 mph - N/A   Partly Cloudy
2:50 AM 42.8 °F 34.8 °F 37.4 °F 81% 29.53 in 6.2 mi West 17.3 mph - N/A Rain Light Rain
3:20 AM 41.0 °F 34.7 °F 35.6 °F 81% 29.53 in 6.2 mi NW 10.4 mph - N/A   Partly Cloudy
3:50 AM 42.8 °F 37.5 °F 35.6 °F 76% 29.53 in 6.2 mi NW 9.2 mph - N/A   Partly Cloudy
4:20 AM 41.0 °F 35.8 °F 33.8 °F 76% 29.53 in 6.2 mi NW 8.1 mph - N/A   Unknown
4:50 AM 42.8 °F 40.1 °F 35.6 °F 76% 29.53 in 6.2 mi WNW 4.6 mph - N/A   Unknown
5:20 AM 41.0 °F 35.2 °F 35.6 °F 81% 29.53 in 6.2 mi NW 9.2 mph - N/A   Scattered Clouds
5:50 AM 41.0 °F 36.4 °F 35.6 °F 81% 29.53 in 6.2 mi SW 6.9 mph - N/A   Scattered Clouds
6:20 AM 42.8 °F 38.0 °F 39.2 °F 87% 29.53 in 6.2 mi WSW 8.1 mph - N/A   Mostly Cloudy
6:50 AM 41.0 °F 35.8 °F 35.6 °F 81% 29.53 in 6.2 mi WSW 8.1 mph - N/A   Mostly Cloudy
7:20 AM 41.0 °F 37.1 °F 35.6 °F 81% 29.53 in 6.2 mi WSW 5.8 mph - N/A   Partly Cloudy
7:50 AM 41.0 °F - 35.6 °F 81% 29.53 in 6.2 mi Variable 2.3 mph - N/A   Partly Cloudy
8:20 AM 39.2 °F 35.9 °F 35.6 °F 87% 29.53 in 6.2 mi ENE 4.6 mph - N/A   Partly Cloudy
8:50 AM 41.0 °F 35.8 °F 37.4 °F 87% 29.56 in 3.7 mi SSW 8.1 mph 19.6 mph N/A Rain Heavy Rain
9:20 AM 42.8 °F 40.1 °F 39.2 °F 87% 29.56 in 6.2 mi NE 4.6 mph - N/A   Scattered Clouds
9:50 AM 42.8 °F - 39.2 °F 87% 29.56 in 6.2 mi Variable 2.3 mph - N/A Rain Light Rain
10:20 AM 42.8 °F 40.1 °F 39.2 °F 87% 29.56 in - SSE 4.6 mph - N/A   Clear
10:50 AM 42.8 °F 39.3 °F 39.2 °F 87% 29.56 in 6.2 mi SSE 5.8 mph - N/A   Partly Cloudy
11:20 AM 46.4 °F 43.5 °F 41.0 °F 81% 29.53 in 6.2 mi South 5.8 mph - N/A   Scattered Clouds
11:50 AM 46.4 °F 42.4 °F 37.4 °F 71% 29.53 in 6.2 mi Variable 8.1 mph 19.6 mph N/A   Mostly Cloudy
12:20 PM 42.8 °F 35.4 °F 37.4 °F 81% 29.53 in 6.2 mi SW 15.0 mph - N/A   Scattered Clouds
12:50 PM 44.6 °F 40.7 °F 37.4 °F 76% 29.53 in 6.2 mi SSW 6.9 mph - N/A   Partly Cloudy
1:20 PM 46.4 °F 41.9 °F 37.4 °F 71% 29.53 in 6.2 mi SW 9.2 mph - N/A   Partly Cloudy
1:50 PM 46.4 °F 42.4 °F 37.4 °F 71% 29.53 in 6.2 mi SW 8.1 mph - N/A   Partly Cloudy
2:20 PM 46.4 °F 41.5 °F 37.4 °F 71% 29.53 in 6.2 mi SW 10.4 mph - N/A   Partly Cloudy
2:50 PM 46.4 °F 42.9 °F 39.2 °F 76% 29.53 in 6.2 mi SSW 6.9 mph - N/A   Partly Cloudy
3:20 PM 42.8 °F 36.6 °F 37.4 °F 81% 29.53 in 4.3 mi WSW 11.5 mph 24.2 mph N/A Rain Light Rain
3:50 PM 42.8 °F 40.1 °F 39.2 °F 87% 29.53 in 6.2 mi SSW 4.6 mph - N/A   Scattered Clouds
4:20 PM 42.8 °F 39.3 °F 39.2 °F 87% 29.53 in 6.2 mi SSW 5.8 mph - N/A   Partly Cloudy
4:50 PM 42.8 °F 39.3 °F 39.2 °F 87% 29.53 in 6.2 mi South 5.8 mph - N/A   Scattered Clouds
5:20 PM 41.0 °F 36.4 °F 37.4 °F 87% 29.53 in 6.2 mi SSW 6.9 mph - N/A   Partly Cloudy
5:50 PM 41.0 °F 35.8 °F 37.4 °F 87% 29.53 in 6.2 mi South 8.1 mph - N/A   Partly Cloudy
6:20 PM 39.2 °F 34.2 °F 37.4 °F 93% 29.53 in 6.2 mi SSW 6.9 mph - N/A   Partly Cloudy
6:50 PM 41.0 °F 36.4 °F 35.6 °F 81% 29.50 in 6.2 mi SSW 6.9 mph - N/A   Partly Cloudy
7:20 PM 39.2 °F 34.2 °F 37.4 °F 93% 29.50 in 6.2 mi South 6.9 mph - N/A   Unknown
7:50 PM 41.0 °F 35.8 °F 37.4 °F 87% 29.50 in 6.2 mi South 8.1 mph - N/A   Partly Cloudy
8:20 PM 42.8 °F 37.0 °F 39.2 °F 87% 29.50 in 6.2 mi SSW 10.4 mph - N/A   Partly Cloudy
8:50 PM 42.8 °F 38.0 °F 37.4 °F 81% 29.50 in 6.2 mi SSW 8.1 mph - N/A   Partly Cloudy
9:20 PM 44.6 °F 40.2 °F 41.0 °F 87% 29.50 in 6.2 mi SW 8.1 mph - N/A   Mostly Cloudy
9:50 PM 42.8 °F 37.5 °F 39.2 °F 87% 29.50 in 6.2 mi SSW 9.2 mph - N/A   Light Drizzle
10:20 PM 44.6 °F 39.2 °F 41.0 °F 87% 29.50 in 3.7 mi SSW 10.4 mph - N/A Rain Rain
10:50 PM 42.8 °F 38.6 °F 41.0 °F 93% 29.50 in 3.1 mi WSW 6.9 mph - N/A Rain Heavy Rain
11:20 PM 42.8 °F 40.1 °F 39.2 °F 87% 29.47 in 6.2 mi SSW 4.6 mph - N/A   Scattered Clouds
11:50 PM 46.4 °F 40.4 °F 41.0 °F 81% 29.47 in 6.2 mi SSW 13.8 mph - N/A   Mostly Cloudy